Regional Weather Roundup
Issued by NWS Wakefield, VA

Home | Current Version | Previous Version | Graphics & Text | Print | Product List | Glossary On
Versions: 1 2 3 4 5 6 7 8 9 10 11 12 13 14 15 16 17 18 19 20 21 22 23 24 25 26 27 28 29 30 31 32 33 34 35 36 37 38 39 40 41 42 43 44 45 46 47 48 49 50
250
ASUS41 KAKQ 291315
RWRAKQ

REGIONAL WEATHER ROUNDUP
NATIONAL WEATHER SERVICE WAKEFIELD VA
900 AM EDT FRI APR 29 2016

Note: "fair" indicates few or no clouds below 12,000 feet with no
significant weather and/or obstructions to visibility. * = Denotes
station may not report precipitation (e.g., rain,snow,etc.),
thunder or fog.

VAZ042-051-052>054-056-291400-
NORTHERN VIRGINIA

CITY           SKY/WX    TMP DP  RH WIND       PRES   REMARKS
WASH NATIONAL  CLOUDY    49  46  90 NE7       30.06R FOG
DULLES         FOG       48  45  89 N6        30.05S VSB 1
FORT BELVOIR   CLOUDY    49  47  91 VRB1      30.05R
QUANTICO       CLOUDY    50  47  89 N6        30.06R
FREDERICKSBRG* CLOUDY    49  49 100 N3        30.05R FOG
STAFFORD*      CLOUDY    48  47  95 N5        30.09R FOG
WARRENTON      CLOUDY    49  44  84 NE5       30.04S FOG
CULPEPER*      CLOUDY    49  48  96 N3        30.06S FOG
MANASSAS*      CLOUDY    48  48 100 CALM      30.05S FOG
LEESBURG*      CLOUDY    48  48 100 NE3       30.06F FOG
WINCHESTER     CLOUDY    46  46 100 CALM      30.04S FOG
FRONT ROYAL*   CLOUDY    46  45  93 N3        30.03S
LURAY*         CLOUDY    48  48 100 N5        30.03R FOG
$$

VAZ048-049-060>072-079>083-291400-
CENTRAL AND SOUTH CENTRAL VIRGINIA

CITY           SKY/WX    TMP DP  RH WIND       PRES   REMARKS
RICHMOND       DRIZZLE   51  50  96 NE8       30.03R FOG
CHESTERFIELD*  CLOUDY    52  39  62 N7        30.05R
PETERSBURG*    CLOUDY    54  54 100 N7        30.03R FOG
HANOVER        CLOUDY    50  47  89 N5        30.05R FOG
TAPPAHANNOCK*  CLOUDY    52  52 100 N5        30.04S FOG
QUINTON*       CLOUDY    51  51  99 NE3       30.03R FOG
CHARLOTTSVILLE CLOUDY    51  48  89 E6        30.03R FOG
GORDONSVILLE*  CLOUDY    49  49 100 NE5       30.03S FOG
ORANGE*        CLOUDY    50  50 100 CALM      30.05F FOG
LOUISA*        CLOUDY    54  52  94 NE5       30.02S FOG
BUMPASS*       CLOUDY    49  49  99 CALM      30.04R
FARMVILLE*     CLOUDY    55  55 100 NE5       30.00F FOG
CREWE*         CLOUDY    53  53 100 CALM      30.02R
FORT PICKETT*  NOT AVBL
CHASE CITY*    CLOUDY    56  54  94 N3        30.01S
CLARKSVILLE*   CLOUDY    55  55 100 N3        30.01S
SOUTH HILL*    CLOUDY    54  54 100 N5        30.07R
LAWRENCEVILLE* CLOUDY    53  53 100 N3        30.02R
EMPORIA*       CLOUDY    52  52 100 N5        30.04R FOG
$$

VAZ088>098-291400-
SOUTHEAST VIRGINIA

CITY           SKY/WX    TMP DP  RH WIND       PRES   REMARKS
NORFOLK        CLOUDY    55  52  89 NE9       30.00S
VIRGINIA BEACH CLOUDY    57  52  83 N13       29.99S FOG
NORFOLK NAVAL  CLOUDY    56  54  93 NE10      30.02R FOG
WEST POINT*    CLOUDY    52  51  97 NE6       30.04R
SALUDA*        CLOUDY    52  52 100 N6        30.02S
NEWPORT NEWS   CLOUDY    54  53  97 NE8       30.01R FOG
LANGLEY AFB    CLOUDY    54  54  98 NE8       30.00S
FORT EUSTIS    CLOUDY    54  54 100 NE6       30.00R FOG
WILLIAMSBURG*  CLOUDY    55  55 100 CALM      30.03R VSB 1
HR EXEC AP*    CLOUDY    57  54  88 NE7       30.02S
FRANKLIN*      CLOUDY    55  53  95 NE6       30.01S FOG
US460-WAKEFLD  CLOUDY    55  52  89 NE3       30.01S FOG
$$

VAZ020-022-025-037-045-291400-
WEST CENTRAL AND SOUTHWEST VIRGINIA

CITY           SKY/WX    TMP DP  RH WIND       PRES   REMARKS
STAUNTON*      FOG       53  53 100 NE5       30.03S VSB 3/4
WAYNESBORO*    CLOUDY    53  52  97 MISG      30.00S
HOT SPRINGS VA FAIR      55  55  98 W10       30.03S
LYNCHBURG      CLOUDY    56  55  97 W5        30.03R FOG
DANVILLE       CLOUDY    60  58  92 W3        30.01F
SOUTH BOSTON*  CLOUDY    56  55  95 CALM      30.02S
MARTINSVILLE   FAIR      61  57  86 CALM      30.04S
ROANOKE        CLOUDY    59  58  96 CALM      30.03S
BLACKSBURG     FAIR      64  55  75 W8        30.06S
DUBLIN*        FAIR      66  53  63 W8        30.05S
MARION*        FAIR      63  52  67 SW12      30.09S
HILLSVILLE*    FAIR      61  49  65 NW10G17   30.05S
RICHLANDS*     FAIR      62  50  65 W7        30.08S
WISE*          FAIR      61  43  51 CALM      30.09S
ABINGDON*      FAIR      64  57  77 W3        30.07S
$$

MDZ021>025-VAZ099-100-291400-
SOUTHERN MARYLAND AND THE DELMARVA PENINSULA

CITY           SKY/WX    TMP DP  RH WIND       PRES   REMARKS
PATUXENT RIVER DRIZZLE   50  48  93 NE10      30.04R FOG
BAY BRIDGE APT NOT AVBL
LEONARDTOWN    CLOUDY    50  46  87 CALM      30.05R
DOVER          CLOUDY    48  48 100 NE9       30.05S
GEORGETOWN     CLOUDY    50  49  96 E12       30.05S FOG
EASTON         CLOUDY   N/A N/A N/A E5        30.09R FOG
CAMBRIDGE      CLOUDY    48  48 100 NE5       30.03S
SALISBURY      CLOUDY    51  50  96 NE10      30.02S FOG
OCEAN CITY     CLOUDY    51  49  92 NE12G21   30.03S
WALLOPS ISLAND CLOUDY    52  50  93 NE14      30.02S
ACCOMACK*      CLOUDY    50 -40   2 NE7       30.01S HAZE
$$

NCZ012>017-030>032-291400-
NORTH CENTRAL AND EASTERN NORTH CAROLINA

CITY           SKY/WX    TMP DP  RH WIND       PRES   REMARKS
ROANOKE RAPIDS CLOUDY    54  54 100 N5        30.01R FOG
RALEIGH        FOG       61  59  93 VRB3      30.00S VSB 1/2
ELIZABETH CITY CLOUDY    56  54  93 N12       30.00R
AHOSKIE*       DRIZZLE   55  54  97 N5        30.01R
EDENTON*       CLOUDY    58  58 100 N8        30.00R FOG
CURRITUCK*     CLOUDY    55  55 100 N14       30.00R FOG
KILL DEVIL HLS CLOUDY    55  55 100 N9        29.97R FOG
MANTEO         NOT AVBL
CAPE HATTERAS  CLOUDY    61  60  97 N7G16     29.96R
TARBORO*       CLOUDY    58  57  96 N7        30.01R
GOLDSBORO      CLOUDY    61  61 100 N8        29.97R
WASHINGTON     CLOUDY    58  58  98 N9        29.98R FOG
GREENVILLE     CLOUDY    59  59 100 N9        30.01R FOG
NEW BERN       CLOUDY    63  61  93 N10       29.98R FOG
WILMINGTON     SUNNY     73  65  75 NW10      29.94R
$$

VAZ048-291400-
ELSEWHERE

CITY           SKY/WX    TMP DP  RH WIND       PRES   REMARKS
HARRISBURG PA  LGT RAIN  45  42  89 E7        30.07S FOG
BALTIMORE      DRIZZLE   47  46  97 VRB5      30.06R FOG
ANNAPOLIS      CLOUDY    49  47  93 MISG      30.06R
ANDREWS AFB    CLOUDY    47  46  96 NE6       30.04R FOG
PHILADELPHIA   CLOUDY    50  40  68 E13G20    30.08R
HENDERSON NC   CLOUDY    56  56 100 N8        30.01R FOG
GREENSBORO     PTSUNNY   61  59  93 NW7       30.02R
ROCKY MOUNT    CLOUDY    58  57  97 N9        30.00R
$$

VAZ100-291400-
MARINE

STATION/POSITION TIME  TEMP    WIND        PRES    WAVE   SWELL
                       AIR SEA DIR/SP/G            HT/PER HT/PER
                 (UTC) (F)     (DEG/KT/KT) (MB)    (FT/S) (FT/S)
BRANDYWINE LGT   1200   50      60/ 16/ 19 1017.3R
CAPE MAY NJ      1200   50 57   80/  8/ 14 1016.8R
LEWES DE         1200   51 54   80/ 17/ 21 1017.1R
15NM E FENWICK I 1250   51 51              1016.7R   5/ 7
OCEAN-CITY-INLET 1200   50 53   70/  9/ 12 1016.3R
WACHAPREAGUE VA  1200   51 57   30/  7/ 12 1015.9R
THOMAS POINT MD  1300   48 57   70/ 10/ 12 1018.9R
GOOSES REEF MD   1300   50 57   50/ 10/ 12 1018.2S   1/ 2
COVE POINT MD    1200   49      50/  9/ 11 1017.6R
SOLOMONS ISLAND  1200   50 59   30/  7/  9   N/A
BISHOPS HEAD MD  1200   51 57   40/ 10/ 14 1015.9R
PINEY POINT MD   1206           60/  4/  5   N/A
POTOMAC MD       1300   52 59   50/ 12/ 16 1016.0R   1
CAMBRIDGE MD     1200   50 60   30/  7/  9 1016.4R
LEWISETTA VA     1200   51 60   50/  6/ 10 1016.3R
RAPPAHANNOCK LGT 1200           30/ 15/ 17 1016.5R
STINGRAY PT      1300   53 61   50/ 10/ 12 1016.9R   2/ 3
YORK RVR RNG VA  1200   54      30/ 15/ 18 1015.3R
YORKTOWN VA      1200   54 62   40/ 10/ 13 1015.7R
JAMESTOWN VA     1300   53 66   30/  6/  8   N/A     0
DOMINION TERM VA 1200   55      40/  4/  7 1015.9R
KIPTOPEKE VA     1200      60   40/  5/  7   N/A
CHES BAY BRIDGE  1200   53 60   10/ 12/ 14 1015.5R
CAPE HENRY VA    1200   53      20/ 16/ 19   N/A
CHESAPEAKE LGHT  1200   52      20/ 21/ 22 1015.7R
WILLOUBY STN VA  1200   55      30/ 14/ 16 1016.7R
CAPE HENRY BUOY  1212      55                N/A     4/ 6
CAPE CHARLES BUO 1226      56                N/A     5/ 6   2/11
OFFSHORE WE BUOY 1221      55                N/A     4/ 6   2/11
64NM E OF VA BCH 1250   54 54   20/ 10/ 12 1014.1R   4/ 7   3/ 7
DUCK PIER NC     1200   55 66  360/ 16/ 20 1014.0R
44100 DUCK FRF   1224      58                N/A     4/ 5
44056 DUCK FRF   1211      58                N/A     4/ 5
OREGON INLET NC  1200   56 63  360/ 11/ 15 1013.8R
HATTERAS NC      1200   64 70   30/  7/ 13 1012.9R
DIAMOND SHLS NC  1250   63 71   20/ 14/ 16 1013.4R   3/ 6   2/10
CAPE LOOKOUT NC  1300   66      10/  8/ 10 1013.6R
$$




USA.gov is the U.S. government's official web portal to all federal, state and local government web resources and services.